Hourly Weather Rudniczek

Today, 16 April, Friday

Time Temperature Precipitation Wind Pressure Humidity
00:00 +2°C° 0 mm 3 mps 750 mmHg 99%
01:00 +2°C° 0 mm 3 mps 750 mmHg 99%
02:00 +2°C° 0.2 mm 3 mps 750 mmHg 99%
03:00 +2°C° 0.2 mm 3 mps 750 mmHg 99%
04:00 +1°C° 0.2 mm 4 mps 750 mmHg 99%
05:00 +1°C° 0.3 mm 4 mps 750 mmHg 99%
06:00 +1°C° 0.3 mm 4 mps 750 mmHg 98%
07:00 +1°C° 0.3 mm 4 mps 750 mmHg 98%
08:00 +1°C° 0.1 mm 4 mps 750 mmHg 98%
09:00 +1°C° 0.1 mm 4 mps 750 mmHg 98%
10:00 +1°C° 0.1 mm 4 mps 750 mmHg 98%
11:00 +1°C° 0.1 mm 4 mps 750 mmHg 97%
12:00 +2°C° 0.1 mm 5 mps 750 mmHg 97%
13:00 +2°C° 0.1 mm 5 mps 750 mmHg 97%
14:00 +3°C° 0.7 mm 4 mps 750 mmHg 97%
15:00 +3°C° 0.7 mm 4 mps 750 mmHg 97%
16:00 +3°C° 0.7 mm 4 mps 750 mmHg 97%
17:00 +3°C° 1.7 mm 4 mps 750 mmHg 97%
18:00 +1°C° 1.7 mm 4 mps 750 mmHg 97%
19:00 +2°C° 1.7 mm 3 mps 750 mmHg 97%
20:00 +2°C° 0.1 mm 3 mps 750 mmHg 98%
21:00 +2°C° 0.1 mm 3 mps 750 mmHg 98%
22:00 +2°C° 0.1 mm 3 mps 750 mmHg 98%
23:00 +2°C° 0 mm 3 mps 750 mmHg 98%

Tomorrow, 17 April, Saturday

Time Temperature Precipitation Wind Pressure Humidity
00:00 +3°C° 0 mm 3 mps 750 mmHg 98%
01:00 +3°C° 0 mm 3 mps 750 mmHg 98%
02:00 +3°C° 0 mm 3 mps 750 mmHg 98%
03:00 +3°C° 0 mm 3 mps 750 mmHg 98%
04:00 +3°C° 0 mm 3 mps 750 mmHg 98%
05:00 +3°C° 0.1 mm 3 mps 750 mmHg 98%
06:00 +4°C° 0.1 mm 3 mps 750 mmHg 98%
07:00 +4°C° 0.1 mm 3 mps 750 mmHg 98%
08:00 +5°C° 0 mm 3 mps 750 mmHg 96%
09:00 +7°C° 0 mm 3 mps 750 mmHg 94%
10:00 +7°C° 0 mm 3 mps 751 mmHg 92%
11:00 +8°C° 0.1 mm 3 mps 751 mmHg 88%
12:00 +9°C° 0.1 mm 3 mps 751 mmHg 85%
13:00 +9°C° 0.1 mm 3 mps 751 mmHg 82%
14:00 +10°C° 0.2 mm 3 mps 751 mmHg 81%
15:00 +10°C° 0.2 mm 3 mps 751 mmHg 81%
16:00 +10°C° 0.2 mm 3 mps 751 mmHg 80%
17:00 +9°C° 0.1 mm 3 mps 751 mmHg 83%
18:00 +8°C° 0.1 mm 3 mps 751 mmHg 86%
19:00 +7°C° 0.1 mm 2 mps 751 mmHg 90%
20:00 +6°C° 0 mm 2 mps 752 mmHg 91%
21:00 +6°C° 0 mm 2 mps 752 mmHg 92%
22:00 +5°C° 0 mm 2 mps 752 mmHg 93%
23:00 +5°C° 0 mm 2 mps 752 mmHg 93%

Day after tomorrow, 18 April, Sunday

Time Temperature Precipitation Wind Pressure Humidity
00:00 +4°C° 0 mm 2 mps 752 mmHg 93%
01:00 +4°C° 0 mm 2 mps 752 mmHg 93%
02:00 +5°C° 0 mm 1 mps 752 mmHg 93%
03:00 +4°C° 0 mm 1 mps 752 mmHg 93%
04:00 +4°C° 0 mm 1 mps 752 mmHg 93%
05:00 +5°C° 0 mm 1 mps 752 mmHg 90%
06:00 +6°C° 0 mm 1 mps 752 mmHg 86%
07:00 +7°C° 0 mm 1 mps 752 mmHg 83%
08:00 +9°C° 0 mm 1 mps 752 mmHg 80%
09:00 +9°C° 0 mm 2 mps 752 mmHg 77%
10:00 +12°C° 0 mm 2 mps 752 mmHg 74%
11:00 +13°C° 0 mm 2 mps 752 mmHg 71%
12:00 +13°C° 0 mm 2 mps 752 mmHg 69%
13:00 +13°C° 0 mm 3 mps 751 mmHg 67%
14:00 +13°C° 0.3 mm 3 mps 751 mmHg 68%
15:00 +13°C° 0.3 mm 3 mps 751 mmHg 69%
16:00 +13°C° 0.3 mm 3 mps 751 mmHg 71%
17:00 +12°C° 0.3 mm 3 mps 751 mmHg 76%
18:00 +11°C° 0.3 mm 3 mps 751 mmHg 81%
19:00 +10°C° 0.3 mm 3 mps 751 mmHg 86%
20:00 +9°C° 0 mm 3 mps 751 mmHg 87%
21:00 +9°C° 0 mm 2 mps 751 mmHg 89%
22:00 +8°C° 0 mm 2 mps 751 mmHg 90%
23:00 +8°C° 0 mm 2 mps 751 mmHg 90%

19 April, Monday

Time Temperature Precipitation Wind Pressure Humidity
00:00 +8°C° 0 mm 2 mps 751 mmHg 89%
01:00 +8°C° 0 mm 2 mps 751 mmHg 89%
02:00 +8°C° 0 mm 2 mps 751 mmHg 90%
03:00 +8°C° 0 mm 3 mps 751 mmHg 90%
04:00 +8°C° 0 mm 3 mps 751 mmHg 91%
05:00 +8°C° 0 mm 3 mps 751 mmHg 89%
06:00 +8°C° 0 mm 3 mps 751 mmHg 87%
07:00 +8°C° 0 mm 2 mps 751 mmHg 85%
08:00 +8°C° 0 mm 3 mps 751 mmHg 80%
09:00 +9°C° 0 mm 3 mps 751 mmHg 76%
10:00 +10°C° 0 mm 3 mps 751 mmHg 71%
11:00 +10°C° 0 mm 3 mps 750 mmHg 67%
12:00 +11°C° 0 mm 4 mps 750 mmHg 64%
13:00 +12°C° 0 mm 4 mps 750 mmHg 60%
14:00 +11°C° 0.1 mm 4 mps 750 mmHg 61%
15:00 +11°C° 0.1 mm 4 mps 749 mmHg 62%
16:00 +11°C° 0.1 mm 4 mps 749 mmHg 63%
17:00 +10°C° 0.1 mm 3 mps 749 mmHg 69%
18:00 +9°C° 0.1 mm 3 mps 749 mmHg 75%
19:00 +8°C° 0.1 mm 3 mps 748 mmHg 81%
20:00 +8°C° 0 mm 2 mps 748 mmHg 83%
21:00 +7°C° 0 mm 2 mps 748 mmHg 84%
22:00 +7°C° 0 mm 2 mps 748 mmHg 86%
23:00 +7°C° 0 mm 2 mps 748 mmHg 87%

20 April, Tuesday

Time Temperature Precipitation Wind Pressure Humidity
00:00 +6°C° 0 mm 2 mps 748 mmHg 89%
01:00 +6°C° 0 mm 2 mps 747 mmHg 90%
02:00 +5°C° 0 mm 2 mps 747 mmHg 91%
03:00 +4°C° 0 mm 2 mps 747 mmHg 93%
04:00 +4°C° 0 mm 2 mps 747 mmHg 94%
05:00 +4°C° 0 mm 3 mps 747 mmHg 91%
06:00 +5°C° 0 mm 3 mps 746 mmHg 87%
07:00 +6°C° 0 mm 4 mps 746 mmHg 84%
08:00 +6°C° 0.1 mm 4 mps 746 mmHg 79%
09:00 +7°C° 0.1 mm 4 mps 746 mmHg 75%
10:00 +8°C° 0.1 mm 5 mps 746 mmHg 70%
11:00 +9°C° 0.2 mm 5 mps 745 mmHg 70%
12:00 +9°C° 0.2 mm 5 mps 745 mmHg 69%
13:00 +10°C° 0.2 mm 4 mps 745 mmHg 68%
14:00 +10°C° 0.2 mm 5 mps 744 mmHg 66%
15:00 +10°C° 0.2 mm 5 mps 744 mmHg 64%
16:00 +10°C° 0.2 mm 5 mps 744 mmHg 62%
17:00 +10°C° 0.2 mm 4 mps 744 mmHg 69%
18:00 +8°C° 0.2 mm 4 mps 744 mmHg 77%
19:00 +7°C° 0.2 mm 3 mps 744 mmHg 84%
20:00 +5°C° 0 mm 3 mps 743 mmHg 87%
21:00 +5°C° 0 mm 3 mps 743 mmHg 90%
22:00 +4°C° 0 mm 3 mps 743 mmHg 92%
23:00 +3°C° 0 mm 3 mps 743 mmHg 93%

21 April, Wednesday

Time Temperature Precipitation Wind Pressure Humidity
00:00 +3°C° 0 mm 3 mps 743 mmHg 93%
01:00 +2°C° 0 mm 3 mps 743 mmHg 93%
02:00 +1°C° 0 mm 4 mps 743 mmHg 94%
03:00 +1°C° 0 mm 4 mps 743 mmHg 94%
04:00 +1°C° 0 mm 4 mps 743 mmHg 94%
05:00 +1°C° 0 mm 4 mps 743 mmHg 90%
06:00 +2°C° 0 mm 5 mps 743 mmHg 87%
07:00 +3°C° 0 mm 5 mps 743 mmHg 83%
08:00 +5°C° 0 mm 5 mps 744 mmHg 78%
09:00 +5°C° 0 mm 6 mps 744 mmHg 72%
10:00 +7°C° 0 mm 6 mps 744 mmHg 67%
11:00 +7°C° 0.1 mm 6 mps 744 mmHg 67%
12:00 +8°C° 0.1 mm 6 mps 744 mmHg 67%
13:00 +8°C° 0.1 mm 7 mps 745 mmHg 67%
14:00 +9°C° 0.1 mm 6 mps 745 mmHg 67%
15:00 +9°C° 0.1 mm 6 mps 745 mmHg 66%
16:00 +9°C° 0.1 mm 5 mps 745 mmHg 65%
17:00 +10°C° 0.1 mm 4 mps 745 mmHg 70%
18:00 +8°C° 0.1 mm 4 mps 745 mmHg 75%
19:00 +8°C° 0.1 mm 3 mps 746 mmHg 80%
20:00 +7°C° 0 mm 3 mps 746 mmHg 82%
21:00 +7°C° 0 mm 3 mps 746 mmHg 84%
22:00 +5°C° 0 mm 3 mps 746 mmHg 86%
23:00 +5°C° 0 mm 3 mps 746 mmHg 87%
Show more